Skip Navigation Links weather.gov 
NOAA logo-Select to go to the NOAA homepage NDBC Title GraphicClick to go to NDBC home page   Select to go to the NWS homepage
Home About Us Contact Us
 
 
    
    Station List

 Data Access
    Mobile Access
    Classic Maps
         Recent
         DART®
    Obs Search
    Ship Obs Report
    BuoyCAMs
    TAO
    DODS
    OceanSITES
    HF Radar
    OSMC
    Dial-A-Buoy
    RSS Feeds Image indicating link to RSS feed access page
    Web Widget
    Email Access
    Web Data Guide
    Maintenance Schedule
    Station Status Report

 Program Info
    TAO
    DART®
    IOOS®

 Publications
    NDBC PEA
    NDBC FONSI
    NDBC DQC Handbook

 FAQ
 Visitor Information
 
USA.gov is the U.S. government's official web portal to all federal, state and local government web resources and services.

Station SLXA2 - Salmon Landing, AK Image indicating link to RSS feed of recent meteorological observations for station SLXA2

Owned and maintained by Marine Exchange of Alaska
C-MAN Station
55.340 N 131.644 W (55°20'22" N 131°38'39" W)

Site elevation: 6.7 m above mean sea level
Air temp height: 18 m above site elevation
Anemometer height: 18 m above site elevation
Barometer elevation: 24.1 m above mean sea level

Search And Rescue (SAR) Data

Meteorological Observations from Nearby Stations and Ships Image indicating link to RSS feed of recent meteorological observations near station SLXA2

Large icon indicates selected station.
yellow diamond Stations with recent data
red diamond Stations with no data in last 8 hours
     (24 hours for tsunami stations)


Conditions at SLXA2 as of
(2:23 am AKST)
1123 GMT on 12/16/2018:
     

Click on the graph icon in the table below to see a time series plot of the last five days of that observation.

5-day plot - Wind Direction Wind Direction (WDIR): ENE ( 70 deg true )
5-day plot - Wind Speed Wind Speed (WSPD): 41 kts
5-day plot - Wind Gust Wind Gust (GST): 54 kts
5-day plot - Atmospheric Pressure Atmospheric Pressure (PRES): 29.64 in
5-day plot - Air Temperature Air Temperature (ATMP): 38.1 °F
5-day plot - Dew Point Dew Point (DEWP): 36.0 °F
5-day plot - Wind Chill Wind Chill (CHILL): 23.4 °F
5-day plot - Wind Speed at 10 Meters Wind Speed at 10 meters (WSPD10M): 39 kts
5-day plot - Wind Speed at 10 Meters Wind Speed at 20 meters (WSPD20M): 43 kts
5-day plot - Wind Speed, Wind Gust and Atmospheric Pressure Combined plot of Wind Speed, Gust, and Air Pressure
Previous observations
5-day plot - Wind Direction 5-day plot - Wind Speed 5-day plot - Wind Gust 5-day plot - Wave Height 5-day plot - Dominant Wave Period 5-day plot - Average Period 5-day plot - Mean Wave Direction 5-day plot - Atmospheric Pressure 5-day plot - Pressure Tendency 5-day plot - Air Temperature 5-day plot - Water Temperature 5-day plot - Dew Point 5-day plot - Salinity 5-day plot - Visibility 5-day plot - Tide (above MLLW)
MM DD TIME
(AKST)
WDIR WSPD
kts
GST
kts
WVHT
ft
DPD
sec
APD
sec
MWD PRES
in
PTDY
in
ATMP
°F
WTMP
°F
DEWP
°F
SAL
psu
VIS
nmi
TIDE
ft
1216 2:13 amENE 42 57----29.67- 38.3- 36.1---
1216 2:03 amENE 44 63----29.67- 38.1- 36.0---
1216 1:53 amENE 39 59----29.64- 37.8- 35.6---
1216 1:43 amENE 36 64----29.64- 37.8- 35.8---
1216 1:33 amENE 35 65----29.62- 37.6- 35.4---
1216 1:23 amENE 34 56----29.58- 37.2- 35.2---
1216 1:13 am E 36 60----29.56- 36.9- 34.9---
1216 1:03 amENE 40 64----29.55- 36.7- 34.7---
121612:53 amENE 32 57----29.55- 36.7- 34.9---
121612:43 amENE 37 60----29.55- 36.7- 34.7---
121612:33 amENE 35 63----29.55- 36.7- 34.7---
121612:23 amENE 37 59----29.54- 36.7- 34.9---
121612:13 amENE 34 55----29.52- 36.5- 34.7---
121612:03 amENE 42 59----29.53- 36.3- 34.3---
121511:53 pmENE 36 55----29.52- 36.3- 34.5---
121511:43 pmENE 35 57----29.53- 36.5- 34.5---
121511:33 pmENE 35 70----29.54- 36.7- 34.7---
121511:23 pmENE 34 55----29.56- 36.9- 34.9---
121511:13 pmENE 37 61----29.56- 36.9- 35.1---
121511:03 pmENE 41 70----29.56- 36.9- 35.1---
121510:53 pmENE 32 55----29.54- 36.7- 34.9---
121510:43 pmENE 35 77----29.54- 36.7- 34.9---
121510:33 pmENE 36 61----29.54- 36.7- 34.7---
121510:23 pmENE 30 69----29.54- 36.7- 34.9---
121510:13 pmNNE 29 78----29.54- 36.7- 34.9---
121510:03 pmNNE 21 71----29.54- 36.5- 34.7---
1215 9:53 pmNNW 24 78----29.54- 36.7- 34.9---
1215 9:43 pm N 26 78----29.53- 36.3- 34.5---
1215 9:33 pm N 27 78----29.51- 36.1- 34.3---
1215 9:23 pmENE 29 57----29.49- 36.0- 34.2---
1215 9:13 pm N 36-----29.49- 35.8- 34.0---
1215 9:03 pm NE 28 44----29.49- 35.8- 34.0---
1215 8:53 pmNNE 27 70----29.48- 35.6- 33.8---
1215 8:43 pm NE 27-----29.46- 35.2- 33.4---
1215 8:33 pmNNE 24 41----29.45- 35.1- 33.3---
1215 8:23 pm NE 24 47----29.45- 35.2- 33.3---
1215 8:13 pm NE 30 78----29.45- 35.2- 33.4---
1215 8:03 pm NE 29 78----29.43- 34.9- 33.1---
1215 7:53 pm N 39 78----29.43- 34.9- 32.9---
1215 7:43 pm E------29.45- 35.2- 33.3---
1215 7:33 pm NE 21 78----29.47- 35.4- 33.4---
1215 7:23 pmENE 25 49----29.48- 35.4- 33.6---
1215 7:13 pm NE 22 56----29.47- 35.4- 33.4---
1215 7:03 pm NE 21 46----29.48- 35.4- 33.4---
1215 6:53 pm NE 18 37----29.49- 35.6- 33.6---
1215 6:43 pm NE 17 48----29.48- 35.6- 33.6---
1215 6:33 pmNNE 17 39----29.47- 35.2- 33.3---
1215 6:23 pmNNE 18 34----29.47- 35.2- 33.3---
1215 6:13 pm NE 17-----29.47- 35.2- 33.3---
1215 6:03 pm NE 17 41----29.47- 35.2- 33.3---
1215 5:53 pmNNE 19 48----29.48- 35.6- 33.8---
1215 5:43 pmENE 22 47----29.49- 35.6- 33.6---
1215 5:33 pm N 17-----29.49- 35.6- 33.6---
1215 5:23 pm N 14-----29.49- 35.6- 33.8---
1215 5:13 pm NW 17-----29.48- 35.6- 33.6---
1215 5:03 pm N 18-----29.48- 35.6- 33.6---
1215 4:53 pm NE 23 44----29.48- 35.4- 33.4---
1215 4:43 pmENE 23 50----29.48- 35.6- 33.6---
1215 4:33 pm NE 20 33----29.48- 35.4- 33.4---
1215 4:23 pmENE 23 46----29.48- 35.4- 33.4---
1215 4:13 pmENE 27 51----29.48- 35.4- 33.4---
1215 4:03 pm NE 26 45----29.48- 35.4- 33.4---
1215 3:53 pmENE 27 42----29.48- 35.4- 33.4---
1215 3:43 pmENE 32 65----29.49- 35.6- 33.6---
1215 3:33 pmENE 27 52----29.48- 35.4- 33.4---
1215 3:23 pm NE 22 43----29.46- 35.4- 33.4---
1215 3:13 pm NE 27 41----29.46- 35.2- 33.3---
1215 2:53 pmENE 34 57----29.44- 35.1- 33.1---
1215 2:43 pmENE 32 56----29.44- 34.9- 32.9---
1215 2:33 pmENE 37 69----29.41- 34.5- 32.5---
1215 2:23 pmENE 30 61----29.39- 34.2- 32.2---
1215 2:13 pmENE 28 52----29.37- 33.8- 31.8---
1215 2:03 pmENE 27 50----29.37- 33.8- 31.8---
1215 1:53 pmENE 26 48----29.37- 33.8- 32.0---
1215 1:43 pmENE 27 46----29.36- 33.6- 31.8---
1215 1:33 pmENE 25 48----29.33- 33.3- 31.5---
1215 1:23 pmENE 33 54----29.30- 32.9- 30.9---
1215 1:13 pmENE 14 34----29.29- 32.7- 30.7---
1215 1:03 pmENE 13 27----29.28- 32.5- 30.4---
121512:53 pmENE 14 36----29.29- 32.5- 30.2---
121512:43 pmENE 14 31----29.32- 32.9- 30.6---
121512:33 pmENE 17 38----29.32- 32.9- 30.4---
121512:23 pmENE 17 32----29.33- 33.3- 30.4---
121512:13 pmENE 23 48----29.36- 34.0- 30.6---
121512:03 pmENE 22 39----29.37- 34.7- 27.7---
121511:53 amENE 23 47----29.37- 36.7- 26.1---
121511:43 amENE 19 42----29.37- 38.3- 25.5---
121511:33 amENE 18 34----29.39- 39.0- 25.3---
121511:23 amENE 23 51----29.40- 38.5- 25.3---
121511:13 am E 24 57----29.41- 38.5- 24.4---
121511:03 amENE 19 38----29.41- 38.5- 23.5---
121510:53 amENE 20 36----29.42- 38.7- 23.5---
121510:43 amENE 17 30----29.42- 39.4- 23.5---
121510:33 amENE 14 31----29.43- 39.6- 23.2---
121510:23 amENE 15 35----29.44- 39.4- 23.4---
121510:15 amENE 16 27----29.45- 39.4- 23.5---
121510:03 am E 17 28----29.46- 39.6- 23.4---
1215 9:53 am E 21 47----29.47- 40.1- 22.6---
1215 9:43 amENE 18 31----29.47- 40.5- 22.5---
1215 9:33 amENE 17 38----29.48- 40.5- 22.5---
1215 9:13 amENE 13 28----29.49- 39.9- 22.6---
1215 9:03 amENE 15 37----29.49- 39.7- 22.3---
1215 8:53 amENE 18 32----29.51- 39.2- 21.9---
1215 8:43 amENE 17 33----29.51- 38.8- 21.9---
1215 8:33 amENE 18 34----29.51- 38.8- 22.3---
1215 8:23 amENE 18 36----29.51- 39.0- 22.5---
1215 8:13 amENE 20 41----29.50- 38.8- 22.6---
1215 8:03 amENE 19 39----29.51- 38.8- 22.6---
1215 7:53 amENE 18 41----29.51- 38.8- 23.0---
1215 7:43 amENE 19 36----29.51- 38.5- 23.2---
1215 7:33 amENE 17 34----29.53- 38.3- 23.2---
1215 7:23 amENE 19 43----29.54- 38.3- 23.0---
1215 7:13 amENE 18 36----29.54- 38.1- 22.8---
1215 7:03 amENE 17 37----29.54- 37.8- 22.1---
1215 6:53 amENE 14 28----29.54- 37.4- 22.1---
1215 6:43 amENE 15 25----29.56- 37.2- 22.3---
1215 6:33 amENE 14 27----29.56- 37.2- 22.5---
1215 6:23 amENE 12 28----29.56- 37.2- 22.8---
1215 6:13 amENE 15 41----29.56- 37.0- 23.2---
1215 6:03 amENE 16 32----29.57- 36.7- 23.4---
1215 5:53 amENE 16 33----29.57- 36.5- 23.7---
1215 5:43 amENE 19 40----29.57- 36.5- 23.9---
1215 5:33 amENE 20 30----29.58- 36.5- 23.9---
1215 5:23 amENE 17 33----29.59- 36.3- 24.1---
1215 5:13 amENE 14 32----29.59- 36.7- 24.3---
1215 5:03 am E 18 33----29.59- 37.0- 24.4---
1215 4:53 am E 18 30----29.60- 36.9- 24.4---
1215 4:43 am E 19 36----29.61- 36.5- 24.8---
1215 4:33 amENE 18 36----29.61- 36.3- 25.2---
1215 4:23 amENE 19 34----29.62- 36.1- 25.3---
1215 4:13 am E 18 37----29.62- 36.1- 25.7---
1215 4:03 am E 21 45----29.61- 36.3- 25.9---
1215 3:53 am E 19 44----29.62- 35.8- 26.4---
1215 3:43 am E 18 35----29.62- 35.2- 26.6---
1215 3:33 am E 18 32----29.63- 34.9- 27.0---
1215 3:23 amENE 14 33----29.62- 34.7- 26.6---
1215 3:13 amENE 13 30----29.62- 35.1- 26.4---
1215 3:03 am E 15 33----29.62- 35.6- 26.4---
1215 2:53 am E 19 33----29.62- 35.1- 26.8---
1215 2:43 am E 15 29----29.62- 35.1- 25.9---
1215 2:33 am E 17 31----29.62- 34.7- 26.4---
1215 2:23 am E 26 37----29.62- 33.3- 27.5---
1215 2:13 am E 8 31----29.63- 31.1- 24.6---
1215 2:03 am N 4 12----29.63- 30.4- 23.5---
1215 1:53 amNNE 4 19----29.63- 30.0- 23.2---

Description of Measurements

Links which are specific to this station are listed below:

Real Time Data in tabular form for the last forty-five days.

Historical Data & Climatic Summaries for quality controlled data for the current month, previous months, and previous years.